GENESIS 1 (29252 NORAD) Tracking and Keplerian Element Data

This shows tracking and keplerian element data for the satellite.

Feedback or suggestion? Click here.




ElementValue
Catalog29252
NameGENESIS 1
Epoch Orbit2640
Epoch Day34.53449047
Epoch Year2025
RAAN93.9715
Inclination64.5064
Eccentricity0.003448
Argument of Perigee302.2969
Mean Anonmoly57.4836
Mean Motion15.60890395
Decay Rate0.00062208
L11 29252U 06029A 25034.53449047 .00062208 00000+0 71568-3 0 9994
L22 29252 64.5064 93.9715 0034480 302.2969 57.4836 15.60890395 26402



Live tracking and technical data element details for GENESIS 1 (NORAD 29252). GENESIS 1 can be tracked NOW for your location showing map with azimuth and elevation plus other details from your city location.







IsCatalogInMostPopularTable: catalog: 29252, numindb: 563
Update: records affected: 1



GetName: 29252 GENESIS 1

Hit Count: updated at: Thu, 22 May 2025 02:46:49 GMT